Weather History for Moffett NAS, CA

Change the Weather History Date:

Thursday, August 2, 2007

  Actual Average Record
Temperature  
Mean Temperature 66 °F 68 °F  
Max Temperature 73 °F 77 °F 95 °F (1946)
Min Temperature 60 °F 60 °F 3 °F (2010)
Degree Days  
Heating Degree Days 0    
Month to date heating degree days  
Since 1 June heating degree days  
Since 1 July heating degree days  
Cooling Degree Days 2    
Month to date cooling degree days  
Year to date cooling degree days  
Since 1 June cooling degree days  
Growing Degree Days 16 (Base 50)    
Moisture  
Dew Point 56 °F    
Average Humidity 72    
Maximum Humidity 86    
Minimum Humidity 55    
Precipitation  
Precipitation 0.00 in 0.00 in 0.00 in (2014)
Month to date precipitation 0.00  
Year to date precipitation 9.65  
Since 1 July precipitation 0.02  
Sea Level Pressure  
Sea Level Pressure 29.96 in    
Wind  
Wind Speed 5 mph (North)    
Max Wind Speed 13 mph    
Max Gust Speed -    
Visibility 10 miles    
Events      
T = Trace of Precipitation, MM = Missing Value Source: NWS Daily Summary

Daily Weather History Graph

Daily Weather History Graph

Search for Another Location

Airport:

Trip Planner

Search our weather history database for the weather conditions in past years. The results will help you decide how hot, cold, wet, or windy it might be!

Date:

Astronomy

Aug. 02, 2007 Rise Set
Actual Time 6:13 AM PDT 8:15 PM PDT
Civil Twilight 5:44 AM PDT 8:43 PM PDT
Nautical Twilight 5:09 AM PDT 9:19 PM PDT
Astronomical Twilight 4:31 AM PDT 9:56 PM PDT
Moon 10:25 PM PDT (8/2) 10:16 AM PDT (8/2)
Length of Visible Light 14h 59m
Length of Day
14h 02m
Waning Gibbous, 83% of the Moon is Illuminated
Aug 2
Waning Gibbous
Aug 5
Last Quarter
Aug 12
New
Aug 20
First Quarter
Aug 28
Full

Hourly Weather History & Observations

Time (PDT) Temp. Dew Point Humidity Pressure Visibility Wind Dir Wind Speed Gust Speed Precip Events Conditions
12:47 AM 60.8 °F 55.4 °F 82% 29.92 in 10.0 mi NNE 3.5 mph - N/A   Mostly Cloudy
12:56 AM 60.1 °F 55.9 °F 86% 29.93 in 10.0 mi NNE 3.5 mph - N/A   Mostly Cloudy
1:56 AM 61.0 °F 55.9 °F 83% 29.92 in 10.0 mi Calm Calm - N/A   Overcast
2:56 AM 62.1 °F 55.9 °F 80% 29.93 in 9.0 mi Calm Calm - N/A   Overcast
3:56 AM 62.1 °F 57.0 °F 84% 29.92 in 9.0 mi Calm Calm - N/A   Overcast
4:56 AM 62.1 °F 55.9 °F 80% 29.92 in 9.0 mi Calm Calm - N/A   Overcast
5:56 AM 62.1 °F 55.9 °F 80% 29.94 in 10.0 mi NNW 3.5 mph - N/A   Overcast
6:56 AM 63.0 °F 55.9 °F 78% 29.95 in 7.0 mi Calm Calm - N/A   Overcast
7:56 AM 63.0 °F 55.0 °F 75% 29.97 in 10.0 mi SSE 3.5 mph - N/A   Overcast
8:56 AM 64.0 °F 55.0 °F 73% 29.99 in 7.0 mi Variable 3.5 mph - N/A   Overcast
9:56 AM 66.9 °F 57.0 °F 70% 29.99 in 10.0 mi East 3.5 mph - N/A   Scattered Clouds
10:56 AM 69.1 °F 57.0 °F 65% 29.99 in 8.0 mi NNW 5.8 mph - N/A   Clear
11:56 AM 71.1 °F 57.9 °F 63% 29.99 in 8.0 mi Variable 5.8 mph - N/A   Clear
12:56 PM 73.0 °F 57.9 °F 59% 29.99 in 10.0 mi North 11.5 mph - N/A   Clear
1:56 PM 73.0 °F 55.9 °F 55% 29.98 in 10.0 mi NW 11.5 mph - N/A   Clear
2:56 PM 73.0 °F 55.9 °F 55% 29.97 in 10.0 mi NNW 12.7 mph - N/A   Clear
3:56 PM 72.0 °F 55.9 °F 57% 29.96 in 10.0 mi NNW 11.5 mph - N/A   Clear
4:56 PM 72.0 °F 57.0 °F 59% 29.94 in 10.0 mi NNW 11.5 mph - N/A   Clear
5:56 PM 71.1 °F 57.9 °F 63% 29.93 in 10.0 mi NNW 12.7 mph - N/A   Clear
6:56 PM 69.1 °F 57.0 °F 65% 29.94 in 10.0 mi NNW 10.4 mph - N/A   Clear
7:56 PM 66.0 °F 57.9 °F 75% 29.95 in 10.0 mi NNW 9.2 mph - N/A   Clear
8:56 PM 64.0 °F 55.9 °F 75% 29.96 in 10.0 mi NNW 9.2 mph - N/A   Clear
9:56 PM 63.0 °F 57.0 °F 81% 29.97 in 10.0 mi NNW 6.9 mph - N/A   Clear
10:56 PM 62.1 °F 55.9 °F 80% 29.98 in 10.0 mi NNW 6.9 mph - N/A   Clear
11:56 PM 61.0 °F 55.0 °F 81% 29.98 in 10.0 mi North 6.9 mph - N/A   Clear